Simultaneous Nadir Overpasses (SNOs) Predictions

Prediction of SNOs between METOP-B and TERRA Satellite Orbit:

Table of predicted SNOs for the next 14.0 days since TLE Epoch: 10/31/2025
Index Date (METOP-B) Time (METOP-B) Lat,Lon (METOP-B) SZA (METOP-B ) Date (TERRA) Time (TERRA) Lat,Lon (TERRA) SZA (TERRA ) Distance(km) Time Diff (sec)
1 11/02/2025 03:05:39 60.47, 104.26 77.81 11/02/2025 03:06:52 60.34, 105.10 77.46 48.10 73
2 11/02/2025 03:52:41 -72.44, -74.37 92.49 11/02/2025 03:52:38 -72.43, -74.38 92.49 0.60 3
3 11/04/2025 16:41:59 -72.15, 92.78 91.94 11/04/2025 16:42:01 -72.15, 92.73 91.95 1.64 2
4 11/04/2025 17:28:57 80.98, -53.86 97.91 11/04/2025 17:27:44 81.52, -55.07 98.25 63.13 73
5 11/07/2025 05:31:24 -71.50,-100.74 91.75 11/07/2025 05:31:30 -71.50,-100.71 91.75 0.94 6
6 11/07/2025 06:21:12 74.14, 72.13 90.58 11/07/2025 06:19:59 74.14, 71.93 90.60 6.12 73
7 11/09/2025 18:20:43 -71.09, 66.25 91.37 11/09/2025 18:20:53 -71.10, 66.28 91.37 1.36 10
8 11/09/2025 19:10:48 72.89,-123.01 90.21 11/09/2025 19:09:38 72.90,-122.99 90.22 0.95 70
9 11/12/2025 07:10:00 -70.82,-126.50 90.89 11/12/2025 07:10:14 -70.82,-126.50 90.90 0.34 14
10 11/12/2025 08:00:02 72.79, 44.47 90.82 11/12/2025 07:58:56 72.79, 44.44 90.83 1.15 66



Historial Predications of SNOs between METOP-B and TERRA
